Zurück zum Katalog

STARLINK-31496

AktivKommunikationVLEO
NORAD 59211·PAYLOAD·🇺🇸 United States

Gestartet Mar 11, 2024 von Vandenberg Space Force Base

Loading…

Nächste Überflüge (nächste 24 Stunden)

TLE

AktuellSource: CelesTrak SupGP

Epoche: Sep 15, 2026, 02:24 UTC

1 59211C 24046L   26258.10048611  .00069209  00000+0  20450-2 0  2584
2 59211  53.1585 340.6048 0001121 102.7214 114.8063 15.34353162    11

Verfolge STARLINK-31496 in Echtzeit mit AllMySat

Download on the App Store